Location: Losili
(4.4086°N, 32.7049°E)
Time: 05:27:47
(UTC+00:00)

GPS 2-04 Rocket1 - Pass Details

Date: 18 September 2019
Orbit: 420 x 552 km, 35.6° (Epoch: 15 October)

Event Time Altitude Azimuth Distance (km) Brightness Sun altitude
Rises 16:05:50 0° 206° (SSW) 2,451 6.5 -5.5°
Reaches altitude 10° 16:08:27 10° 187° (S) 1,605 5.3 -6.1°
Maximum altitude 16:11:03 18° 141° (SE) 1,208 4.2 -6.8°
Drops below altitude 10° 16:13:44 10° 96° (E) 1,661 4.6 -7.4°
Enters shadow 16:13:55 - 94° (E) 1,715 4.6 -7.5°
